Rochester, Indiana, United States (46975)
Lat: 41.06N, Lon: 86.22W
Wx Zone: INZ015
Local Info
Past Weather Observations for Today

NOTE: This archive is for the closest National Weather Service station to Rochester. Information may differ from the station used for current weather conditions.

Click here for Long-term Archive

Time Weather Temperature Dewpoint Humidity Pressure Winds Precip Visibility
18:35
Overcast
52°F / 11°C 46°F / 8°C 82% 30.01 in
(1016 mb)
NE 4.6 mph
(NE 7 kph)
- 10SM
18:15
Overcast
54°F / 12°C 46°F / 8°C 77% 30.01 in
(1016 mb)
NE 4.6 mph
(NE 7 kph)
- 10SM
17:55
Overcast
54°F / 12°C 46°F / 8°C 77% 30.01 in
(1016 mb)
NE 4.6 mph
(NE 7 kph)
- 10SM
17:35
Overcast
54°F / 12°C 46°F / 8°C 77% 30.01 in
(1016 mb)
NE 10.4 mph
(NE 17 kph)
- 10SM
17:15
Overcast
54°F / 12°C 45°F / 7°C 72% 30.01 in
(1016 mb)
NE 8.1 mph
(NE 13 kph)
- 10SM
16:55
Overcast
54°F / 12°C 45°F / 7°C 72% 30.01 in
(1016 mb)
NE 8.1 mph
(NE 13 kph)
- 10SM
16:35
Overcast
54°F / 12°C 46°F / 8°C 77% 30.01 in
(1016 mb)
NE 8.1 mph
(NE 13 kph)
- 10SM
16:15
Overcast
55°F / 13°C 46°F / 8°C 72% 30.01 in
(1016 mb)
ENE 9.2 mph
(ENE 15 kph)
- 10SM
15:55
Overcast
55°F / 13°C 46°F / 8°C 72% 30.01 in
(1016 mb)
ENE 10.4 mph
(ENE 17 kph)
- 10SM
15:35
Overcast
57°F / 14°C 46°F / 8°C 67% 30.01 in
(1016 mb)
NE 9.2 mph
(NE 15 kph)
- 10SM
15:15
Overcast
57°F / 14°C 46°F / 8°C 67% 30.01 in
(1016 mb)
NE 5.8 mph
(NE 9 kph)
- 10SM
14:55
Overcast
57°F / 14°C 46°F / 8°C 67% 30.01 in
(1016 mb)
NE 8.1 mph
(NE 13 kph)
- 10SM
14:35
Mostly Cloudy
57°F / 14°C 46°F / 8°C 67% 30.01 in
(1016 mb)
NE 8.1 mph
(NE 13 kph)
- 10SM
14:15
Mostly Cloudy
57°F / 14°C 46°F / 8°C 67% 30.01 in
(1016 mb)
N 8.1 mph
(N 13 kph)
- 10SM
13:55
Mostly Cloudy
59°F / 15°C 48°F / 9°C 68% 30.01 in
(1016 mb)
NE 11.5 mph
(NE 19 kph)
- 10SM
13:35
Mostly Cloudy
55°F / 13°C 46°F / 8°C 72% 30.01 in
(1016 mb)
NE 5.8 mph
(NE 9 kph)
- 10SM
13:15
Overcast
55°F / 13°C 46°F / 8°C 72% 30.01 in
(1016 mb)
N 5.8 mph
(N 9 kph)
- 10SM
12:55
Overcast
55°F / 13°C 46°F / 8°C 72% 30.01 in
(1016 mb)
NE 6.9 mph
(NE 11 kph)
- 10SM
12:35
Overcast
54°F / 12°C 46°F / 8°C 77% 30.04 in
(1017 mb)
ENE 5.8 mph
(ENE 9 kph)
- 10SM
12:15
Overcast
54°F / 12°C 46°F / 8°C 77% 30.01 in
(1016 mb)
N 4.6 mph
(N 7 kph)
- 10SM
11:55
Overcast
52°F / 11°C 46°F / 8°C 82% 30.01 in
(1016 mb)
NE 5.8 mph
(NE 9 kph)
- 10SM
11:35
Overcast
52°F / 11°C 46°F / 8°C 82% 30.01 in
(1016 mb)
N 6.9 mph
(N 11 kph)
- 10SM
11:15
Overcast
50°F / 10°C 45°F / 7°C 82% 30.04 in
(1017 mb)
NNE 5.8 mph
(NNE 9 kph)
- 10SM
10:55
Overcast
50°F / 10°C 46°F / 8°C 88% 30.01 in
(1016 mb)
N 4.6 mph
(N 7 kph)
- 10SM
10:35
Overcast
50°F / 10°C 46°F / 8°C 88% 30.04 in
(1017 mb)
NNW 6.9 mph
(NNW 11 kph)
- 10SM
10:15
Overcast
50°F / 10°C 46°F / 8°C 88% 30.04 in
(1017 mb)
NNW 8.1 mph
(NNW 13 kph)
- 10SM
09:55
Overcast
50°F / 10°C 45°F / 7°C 82% 30.04 in
(1017 mb)
NW 4.6 mph
(NW 7 kph)
- 10SM
09:35
Overcast
48°F / 9°C 45°F / 7°C 87% 30.04 in
(1017 mb)
N 6.9 mph
(N 11 kph)
- 10SM
09:15
Overcast
48°F / 9°C 45°F / 7°C 87% 30.01 in
(1016 mb)
N 6.9 mph
(N 11 kph)
- 10SM
08:55
Overcast
48°F / 9°C 45°F / 7°C 87% 30.01 in
(1016 mb)
NNW 5.8 mph
(NNW 9 kph)
- 10SM
08:35
Overcast
48°F / 9°C 45°F / 7°C 87% 30.01 in
(1016 mb)
NNW 6.9 mph
(NNW 11 kph)
- 10SM
08:15
Overcast
46°F / 8°C 45°F / 7°C 93% 30.01 in
(1016 mb)
NNW 9.2 mph
(NNW 15 kph)
- 10SM
07:55
Overcast
48°F / 9°C 45°F / 7°C 87% 30.01 in
(1016 mb)
NNW 9.2 mph
(NNW 15 kph)
- 10SM
07:35
Overcast
48°F / 9°C 45°F / 7°C 87% 30.01 in
(1016 mb)
N 9.2 mph
(N 15 kph)
- 10SM
07:15
Overcast
48°F / 9°C 46°F / 8°C 94% 30.01 in
(1016 mb)
N 8.1 mph
(N 13 kph)
- 10SM
06:55
Overcast
48°F / 9°C 46°F / 8°C 94% 30.01 in
(1016 mb)
N 10.4 mph
(N 17 kph)
- 10SM
06:35
Overcast
48°F / 9°C 46°F / 8°C 94% 30.01 in
(1016 mb)
N 8.1 mph
(N 13 kph)
- 10SM
06:15
Overcast
48°F / 9°C 46°F / 8°C 94% 30.01 in
(1016 mb)
NNW 9.2 mph
(NNW 15 kph)
- 10SM
05:55
Overcast
50°F / 10°C 48°F / 9°C 94% 30.01 in
(1016 mb)
NNW 6.9 mph
(NNW 11 kph)
- 10SM
05:35
Overcast
50°F / 10°C 50°F / 10°C 100% 30.01 in
(1016 mb)
NW 8.1 mph
(NW 13 kph)
- 10SM
05:15
Overcast
52°F / 11°C 50°F / 10°C 94% 29.98 in
(1015 mb)
NNW 8.1 mph
(NNW 13 kph)
- 10SM
04:55
Overcast
52°F / 11°C 50°F / 10°C 94% 29.98 in
(1015 mb)
NNW 9.2 mph
(NNW 15 kph)
- 10SM
04:35
Overcast
52°F / 11°C 52°F / 11°C 100% 29.98 in
(1015 mb)
N 10.4 mph
(N 17 kph)
- 10SM
04:15
Overcast
52°F / 11°C 52°F / 11°C 100% 29.98 in
(1015 mb)
NNW 8.1 mph
(NNW 13 kph)
- 10SM
03:55
Overcast
54°F / 12°C 52°F / 11°C 94% 29.98 in
(1015 mb)
NNW 9.2 mph
(NNW 15 kph)
- 7SM
03:35
Overcast
54°F / 12°C 54°F / 12°C 100% 29.98 in
(1015 mb)
NW 6.9 mph
(NW 11 kph)
- 7SM
03:15
Overcast
Light Rain
54°F / 12°C 54°F / 12°C 100% 29.98 in
(1015 mb)
NW 9.2 mph
(NW 15 kph)
- 7SM
02:55
Overcast
Light Rain
55°F / 13°C 54°F / 12°C 94% 29.95 in
(1014 mb)
N 5.8 mph
(N 9 kph)
- 10SM
02:35
Overcast
Light Rain
55°F / 13°C 54°F / 12°C 94% 29.95 in
(1014 mb)
NNW 10.4 mph
(NNW 17 kph)
- 10SM
02:15
Overcast
57°F / 14°C 55°F / 13°C 94% 29.98 in
(1015 mb)
NNW 8.1 mph
(NNW 13 kph)
- 10SM
01:55
Overcast
57°F / 14°C 55°F / 13°C 94% 29.95 in
(1014 mb)
NW 5.8 mph
(NW 9 kph)
- 7SM
01:35
Overcast
57°F / 14°C 55°F / 13°C 94% 29.95 in
(1014 mb)
NW 5.8 mph
(NW 9 kph)
- 7SM
01:15
Overcast
Fog And Mist
57°F / 14°C 55°F / 13°C 94% 29.95 in
(1014 mb)
NW 6.9 mph
(NW 11 kph)
- 5SM
00:55
Overcast
Fog And Mist
57°F / 14°C 55°F / 13°C 94% 29.95 in
(1014 mb)
NW 3.5 mph
(NW 6 kph)
- 5SM
00:35
Overcast
Fog And Mist
57°F / 14°C 55°F / 13°C 94% 29.95 in
(1014 mb)
NNW 5.8 mph
(NNW 9 kph)
- 5SM
00:15
Mostly Cloudy
Fog And Mist
57°F / 14°C 55°F / 13°C 94% 29.95 in
(1014 mb)
NNW 5.8 mph
(NNW 9 kph)
- 5SM
Time Weather Temperature Dewpoint Humidity Pressure Winds Precip Visibility


Weather for websites

WeatherForYou.com, LLC is not responsible for any damages or problems caused by this service. Current weather conditions are obtained from the closest station including government and personal stations which may have varying degrees of accuracy. Weather forecasts are derived from the NOAA NDFD. Like all things, this site belongs to Jesus Christ... He just trusts me to maintain it. If you have any questions or comments email webmaster@weatherforyou.com

Copyright © 2014, WeatherForYou.com LLC. All rights reserved.